Content
SEND FEEDBACK

Daily
Averages
Monthly
Summary
United States of America

CAMP QUEZON, GUAM


Home > North America > United States > Guam
Elevation: 269 feet     Latitude: 13 28N     Longitude: 144 48E

WEATHER
 
SELECT A DAY
Number of Records: 213,129;   Date Range: 1/1/95 - 10/1/14
 
SHARE

PRINT THIS DATA

[ ← Previous Day ]
WEATHER ALMANAC - MAY 10, 2013
[ Next Day → ]
[ °C ]   °F
Weather ElementAverageHighLow
Temperature85.1 °F89.6 °F (1:09 pm)82 °F (1:54 am)
Dewpoint75 °F75.9 °F (1:54 am)73.9 °F (9:54 am)
Humidity71.9 %82 % (1:54 am)61 % (12:54 pm)
Barometer29.81 in29.85 in (8:54 am)29.76 in (3:54 pm)
Wind Speed7.1 mph11.5 mph (12:54 pm)
Weather ElementAverage
Visibility10 mi
Wind DirectionENE (77.5 °)

Weather ElementTotal
Precipitation---
Cooling Degree Days20.8 (Base 65)
Growing Degree Days35.8 (Base 50)
Averaged from 24 records on May 10, 2013
WEATHER CONDITIONS BREAKOUT
WIND DIRECTION BREAKOUT
WEATHER BY HOUR - MAY 10, 2013
[ °C ]   °F
Local TimeTemperatureDewpointHumidityBarometerVisibilityWind DirectionWind SpeedGust SpeedPrecipitationEventsConditions
1:54 AM82.0 °F75.9 °F82 %29.82 in10.0 miNE (40°)5.8 mphMostly Cloudy
2:54 AM82.0 °F75.9 °F82 %29.81 in10.0 miNE (50°)3.5 mphOvercast
3:54 AM82.0 °F75.9 °F82 %29.81 in10.0 miNE (50°)5.8 mphOvercast
4:54 AM82.0 °F75.0 °F79 %29.81 in10.0 miNE (50°)4.6 mphOvercast
5:54 AM82.0 °F75.9 °F82 %29.82 in10.0 miEast (90°)3.5 mphPartly Cloudy
6:54 AM82.9 °F75.9 °F79 %29.83 in10.0 miEast (100°)4.6 mphClear
7:54 AM84.9 °F75.0 °F72 %29.84 in10.0 miEast (90°)5.8 mphClear
8:54 AM84.9 °F75.0 °F72 %29.85 in10.0 miEast (100°)10.4 mphPartly Cloudy
9:54 AM87.1 °F73.9 °F65 %29.84 in10.0 miEast (90°)10.4 mphPartly Cloudy
10:54 AM88.0 °F75.0 °F65 %29.83 in10.0 miEast (100°)10.4 mphClear
11:54 AM88.0 °F75.0 °F65 %29.81 in10.0 miEast (100°)9.2 mphScattered Clouds
12:54 PM89.1 °F73.9 °F61 %29.79 in10.0 miEast (100°)11.5 mphMostly Cloudy
1:09 PM89.6 °F75.2 °F62 %29.82 in10.0 miEast (100°)11.5 mphScattered Clouds
1:54 PM89.1 °F73.9 °F61 %29.78 in10.0 miENE (60°)9.2 mphMostly Cloudy
2:54 PM88.0 °F73.9 °F63 %29.77 in10.0 miEast (90°)10.4 mphMostly Cloudy
3:54 PM87.1 °F73.9 °F65 %29.76 in10.0 miEast (100°)9.2 mphScattered Clouds
4:54 PM86.0 °F73.9 °F67 %29.76 in10.0 miEast (100°)8.1 mphMostly Cloudy
5:54 PM86.0 °F75.0 °F70 %29.77 in10.0 miEast (80°)8.1 mphScattered Clouds
6:54 PM84.0 °F75.0 °F74 %29.78 in10.0 miEast (80°)5.8 mphScattered Clouds
7:54 PM84.0 °F75.9 °F76 %29.80 in10.0 miEast (80°)5.8 mphPartly Cloudy
8:54 PM84.0 °F75.0 °F74 %29.81 in10.0 miENE (70°)5.8 mphPartly Cloudy
9:54 PM82.9 °F75.0 °F77 %29.82 in10.0 miCalmScattered Clouds
10:54 PM82.9 °F75.0 °F77 %29.82 in10.0 miENE (70°)4.6 mphMostly Cloudy
11:54 PM84.0 °F75.0 °F74 %29.81 in10.0 miENE (70°)5.8 mphScattered Clouds
Hourly data recorded from PGUM, located miles away from Camp Quezon, Guam







STORIES FROM OUR PARTNERS